RH
79 88 86 89 88 87 82 67 47 29 22 23 23 24 25 27 27 30 44 50 48 52 51 40 30 20 14 14 14 15 16 17 16 15 15 16 17 19 19 19 21 23 26
57 73 87 88 94 98 90 76 60 40 32 26 25 27 27 26 26 21 41 54 54 52 46 38 31 21 17 19 17 18 16 18 23 22 18 14 14 15 17 19 20 23 24
28 56 88 99 96 79 95 90 74 55 45 36 30 30 28 26 22 24 42 55 54 53 48 40 32 21 21 22 22 22 23 19 16 15 14 14 15 17 19 22 23 26 28
13 28 49 77 84 99 89 92 85 69 56 49 43 32 28 27 28 30 44 52 54 53 51 43 37 21 23 22 23 23 19 15 15 15 16 17 17 17 21 23 24 26 27
16 19 21 40 62 93 99 92 90 90 75 64 53 43 37 32 43 50 42 43 50 52 48 41 37 22 19 22 23 23 20 17 15 16 17 17 16 16 16 20 25 27 29
22 21 24 25 41 61 81 94 91 92 89 78 69 56 46 45 39 35 35 35 45 49 43 38 33 20 21 23 23 22 18 17 17 17 17 17 16 15 19 23 26 29 30
26 26 27 37 34 38 55 77 93 94 93 89 89 79 64 54 49 49 46 43 42 34 34 34 22 19 18 20 20 16 15 16 16 17 16 15 15 20 26 26 26 29 30
28 29 31 32 30 34 38 54 65 76 79 87 87 83 80 74 66 49 43 39 33 29 25 20 19 17 17 17 15 16 16 15 15 15 15 16 19 24 28 31 30 31 32
31 32 31 33 36 37 37 43 49 60 68 82 85 88 90 84 74 64 52 41 36 28 24 21 18 17 16 16 16 18 20 16 15 14 15 17 20 23 30 33 32 33 34
32 35 36 36 37 38 45 45 47 55 72 68 83 80 89 85 78 67 56 48 40 33 25 21 18 17 17 17 18 18 18 16 15 15 15 19 28 27 33 37 37 36 34
33 38 40 40 40 39 48 52 53 59 57 65 82 82 78 75 68 68 58 55 47 37 27 23 21 26 22 20 20 20 19 17 15 15 18 28 31 29 33 37 34 30 33
40 37 41 42 44 47 45 52 57 59 58 59 66 79 80 79 77 68 60 57 50 40 31 31 27 22 26 24 22 21 20 19 17 16 20 26 29 36 33 34 30 29 30
47 42 40 44 46 50 54 56 60 66 71 62 64 66 72 77 78 70 60 53 50 48 48 37 30 31 31 29 30 25 21 23 17 18 22 30 34 35 33 32 29 25 22
54 54 47 45 47 58 66 68 69 70 66 64 66 64 63 68 77 68 61 52 50 44 40 46 43 36 31 34 28 24 20 18 18 20 31 27 32 33 34 30 27 23 21
67 65 55 49 50 55 60 60 64 78 76 73 72 64 64 62 56 65 68 56 43 44 43 47 45 41 33 28 29 26 22 27 28 30 34 34 33 32 34 31 26 23 21
72 71 66 56 54 61 71 80 83 78 79 78 71 65 66 70 66 53 52 52 51 53 50 44 45 39 36 28 27 29 27 23 28 29 35 36 34 39 32 25 24 22 21
78 73 72 62 57 58 64 71 71 72 78 70 76 71 73 69 71 64 45 45 51 57 51 50 45 35 28 29 28 21 21 28 32 35 35 39 39 31 26 25 23 21 19
84 75 77 70 66 63 70 77 85 86 78 74 81 81 71 67 50 52 34 35 43 48 42 37 31 31 30 25 22 28 38 39 40 40 41 37 30 27 26 23 21 19 17
83 82 82 76 73 66 71 75 79 78 88 74 72 72 68 62 55 49 36 48 51 46 41 36 34 33 32 29 36 41 46 44 41 42 36 30 28 27 24 20 19 18 17
85 92 89 81 76 68 74 78 78 75 80 72 81 71 61 60 64 48 47 52 44 40 41 39 38 36 33 36 43 45 43 43 40 36 32 29 27 24 21 20 19 19 18
97 92 88 88 83 73 76 77 88 87 82 83 83 73 56 50 55 52 50 48 43 41 42 39 38 39 44 47 47 45 44 39 36 32 30 28 25 22 21 20 20 18 17
98 96 94 94 77 68 74 84 87 81 82 75 71 66 57 52 46 43 42 40 44 46 43 45 47 53 50 48 47 43 40 39 35 34 30 26 24 22 22 20 18 17 16
97 97 90 83 78 83 80 73 70 73 62 50 52 56 59 54 54 52 48 48 48 50 51 60 60 54 52 48 44 42 40 39 37 34 29 26 25 23 21 19 18 17 17
98 89 84 82 85 82 80 75 67 63 59 53 52 56 57 55 50 50 52 56 59 64 67 61 57 53 49 47 44 44 42 39 36 34 31 27 24 21 18 17 16 15 16
93 92 89 83 80 76 71 62 61 54 53 53 54 58 60 58 58 58 66 69 70 64 62 61 59 55 52 49 47 44 41 38 33 32 31 27 26 23 18 16 17 18 20
86 87 90 83 83 75 65 58 56 53 59 62 62 63 64 63 66 72 72 68 68 66 65 63 61 57 53 49 45 43 40 35 33 28 29 26 22 25 26 23 24 22 23